User: anonymous   Login
Location: Unspecified
(0.0000°N, 0.0000°E)
Time: 16:44:30
(UTC+00:00)
Language:

COSMOS 2508 - Orbit

View from above orbital plane
View from above orbital plane
View from above satellite
View from above satellite

Ground track
Ground track

The orbit data is extracted from the following two-line orbital elements,

1 40921U 15050B   22279.89840750  .00000051  00000-0  29570-3 0  9992
2 40921  82.4908 198.6636 0014976  83.1727 277.1055 12.42897306319252
Epoch (UTC): 06 October 2022 21:33:42
Eccentricity: 0.0014976
inclination: 82.4908°
perigee height: 1482 km
apogee height: 1506 km
right ascension of ascending node: 198.6636°
argument of perigee: 83.1727°
revolutions per day: 12.42897306
mean anomaly at epoch: 277.1055°
orbit number at epoch: 31925

The dashed part of the orbit path shows where the satellite is in the earth's shadow,  

DLR